When you browse on this site, cookies collect data to enhance your experience and personalize the content and advertising you see.
Visit our Privacy Policy to learn more. By continuing to use the site, you agree to this use of cookies and data.
  • In Latvia
  • List of Countries
  • For 7 days
  • Water Temperature
  • Satellite Maps
  • Weather Map
  • Weather Widgets
  • user-avatar
    Login

    Hourly Weather Kolynevo

    Today, 16 November, Friday

    Time Temperature Precipitation Wind Pressure Humidity
    00:00 -4°C° 0 mm 2 mps 763 mmHg 93%
    01:00 -5°C° 0 mm 2 mps 763 mmHg 93%
    02:00 -4°C° 0 mm 2 mps 764 mmHg 92%
    03:00 -4°C° 0 mm 2 mps 764 mmHg 93%
    04:00 -4°C° 0 mm 2 mps 764 mmHg 93%
    05:00 -4°C° 0 mm 2 mps 763 mmHg 94%
    06:00 -5°C° 0 mm 3 mps 764 mmHg 94%
    07:00 -5°C° 0 mm 3 mps 764 mmHg 94%
    08:00 -5°C° 0 mm 3 mps 764 mmHg 94%
    09:00 -4°C° 0 mm 3 mps 764 mmHg 91%
    10:00 -4°C° 0 mm 3 mps 764 mmHg 88%
    11:00 -2°C° 0 mm 3 mps 764 mmHg 85%
    12:00 -2°C° 0 mm 3 mps 764 mmHg 85%
    13:00 -1°C° 0 mm 3 mps 764 mmHg 85%
    14:00 -2°C° 0 mm 3 mps 765 mmHg 85%
    15:00 -2°C° 0 mm 3 mps 764 mmHg 87%
    16:00 -2°C° 0 mm 3 mps 764 mmHg 89%
    17:00 -4°C° 0 mm 4 mps 764 mmHg 91%
    18:00 -4°C° 0 mm 4 mps 764 mmHg 91%
    19:00 -4°C° 0 mm 4 mps 764 mmHg 91%
    20:00 -4°C° 0 mm 4 mps 763 mmHg 91%
    21:00 -4°C° 0 mm 4 mps 763 mmHg 91%
    22:00 -4°C° 0 mm 4 mps 763 mmHg 91%
    23:00 -4°C° 0 mm 4 mps 762 mmHg 91%

    Tomorrow, 17 November, Saturday

    Time Temperature Precipitation Wind Pressure Humidity
    00:00 -3°C° 0.1 mm 4 mps 762 mmHg 91%
    01:00 -3°C° 0.1 mm 4 mps 762 mmHg 90%
    02:00 -2°C° 0.1 mm 4 mps 761 mmHg 89%
    03:00 -2°C° 0.9 mm 4 mps 761 mmHg 90%
    04:00 -1°C° 0.9 mm 4 mps 760 mmHg 90%
    05:00 -1°C° 0.9 mm 5 mps 760 mmHg 91%
    06:00 -1°C° 0.8 mm 5 mps 759 mmHg 91%
    07:00 -1°C° 0.8 mm 5 mps 758 mmHg 92%
    08:00 -1°C° 0.8 mm 5 mps 758 mmHg 92%
    09:00 0°C° 1.3 mm 5 mps 757 mmHg 92%
    10:00 0°C° 1.3 mm 5 mps 756 mmHg 91%
    11:00 0°C° 1.3 mm 5 mps 756 mmHg 91%
    12:00 0°C° 0.7 mm 5 mps 755 mmHg 91%
    13:00 0°C° 0.7 mm 5 mps 754 mmHg 91%
    14:00 0°C° 0.7 mm 5 mps 754 mmHg 91%
    15:00 0°C° 0.2 mm 5 mps 753 mmHg 92%
    16:00 0°C° 0.2 mm 5 mps 752 mmHg 92%
    17:00 0°C° 0.2 mm 5 mps 752 mmHg 93%
    18:00 +1°C° 0.1 mm 5 mps 751 mmHg 93%
    19:00 +1°C° 0.1 mm 5 mps 750 mmHg 94%
    20:00 +1°C° 0.1 mm 5 mps 749 mmHg 94%
    21:00 +1°C° 0.2 mm 4 mps 749 mmHg 94%
    22:00 +1°C° 0.2 mm 4 mps 748 mmHg 94%
    23:00 0°C° 0.2 mm 4 mps 747 mmHg 94%

    Day after tomorrow, 18 November, Sunday

    Time Temperature Precipitation Wind Pressure Humidity
    00:00 0°C° 0.3 mm 4 mps 747 mmHg 95%
    01:00 +1°C° 0.3 mm 3 mps 746 mmHg 95%
    02:00 +1°C° 0.3 mm 3 mps 746 mmHg 96%
    03:00 +1°C° 0.2 mm 3 mps 746 mmHg 96%
    04:00 +2°C° 0.2 mm 2 mps 745 mmHg 97%
    05:00 +2°C° 0.2 mm 2 mps 745 mmHg 97%
    06:00 +2°C° 0.2 mm 2 mps 745 mmHg 97%
    07:00 +2°C° 0.2 mm 2 mps 745 mmHg 97%
    08:00 +2°C° 0.2 mm 2 mps 745 mmHg 97%
    09:00 +2°C° 0.3 mm 2 mps 746 mmHg 96%
    10:00 +1°C° 0.3 mm 3 mps 746 mmHg 94%
    11:00 +2°C° 0.3 mm 3 mps 746 mmHg 93%
    12:00 +2°C° 0.3 mm 3 mps 747 mmHg 92%
    13:00 +1°C° 0.3 mm 4 mps 747 mmHg 91%
    14:00 0°C° 0.3 mm 4 mps 747 mmHg 89%
    15:00 0°C° 0.2 mm 4 mps 748 mmHg 90%
    16:00 0°C° 0.2 mm 4 mps 748 mmHg 91%
    17:00 0°C° 0.2 mm 4 mps 749 mmHg 92%
    18:00 0°C° 0 mm 4 mps 749 mmHg 91%
    19:00 0°C° 0 mm 4 mps 750 mmHg 91%
    20:00 0°C° 0 mm 4 mps 750 mmHg 90%
    21:00 0°C° 0.1 mm 4 mps 751 mmHg 90%
    22:00 0°C° 0.1 mm 4 mps 752 mmHg 90%
    23:00 0°C° 0.1 mm 4 mps 752 mmHg 89%

    19 November, Monday

    Time Temperature Precipitation Wind Pressure Humidity
    00:00 0°C° 0.1 mm 4 mps 753 mmHg 89%
    01:00 0°C° 0.1 mm 4 mps 753 mmHg 89%
    02:00 0°C° 0.1 mm 4 mps 754 mmHg 89%
    03:00 -1°C° 0.1 mm 4 mps 754 mmHg 89%
    04:00 -1°C° 0.1 mm 4 mps 755 mmHg 88%
    05:00 -1°C° 0.1 mm 4 mps 755 mmHg 88%
    06:00 -1°C° 0 mm 4 mps 755 mmHg 88%
    07:00 -2°C° 0 mm 4 mps 756 mmHg 88%
    08:00 -2°C° 0 mm 4 mps 756 mmHg 88%
    09:00 -2°C° 0 mm 4 mps 757 mmHg 87%
    10:00 -2°C° 0 mm 4 mps 757 mmHg 86%
    11:00 -2°C° 0 mm 4 mps 758 mmHg 86%
    12:00 -2°C° 0 mm 4 mps 758 mmHg 86%
    13:00 -2°C° 0 mm 4 mps 758 mmHg 86%
    14:00 -2°C° 0 mm 4 mps 758 mmHg 86%
    15:00 -1°C° 0 mm 3 mps 758 mmHg 87%
    16:00 -2°C° 0 mm 3 mps 758 mmHg 89%
    17:00 -2°C° 0 mm 3 mps 759 mmHg 90%
    18:00 -2°C° 0.1 mm 3 mps 759 mmHg 91%
    19:00 -2°C° 0.1 mm 3 mps 759 mmHg 91%
    20:00 -2°C° 0.1 mm 3 mps 759 mmHg 91%
    21:00 -2°C° 0.1 mm 2 mps 759 mmHg 92%
    22:00 -1°C° 0.1 mm 2 mps 759 mmHg 93%
    23:00 -1°C° 0.1 mm 2 mps 759 mmHg 94%

    20 November, Tuesday

    Time Temperature Precipitation Wind Pressure Humidity
    00:00 -1°C° 0 mm 2 mps 759 mmHg 94%
    01:00 -1°C° 0 mm 2 mps 759 mmHg 95%
    02:00 +1°C° 0 mm 1 mps 759 mmHg 95%
    03:00 0°C° 0 mm 1 mps 759 mmHg 95%
    04:00 0°C° 0 mm 1 mps 759 mmHg 95%
    05:00 0°C° 0 mm 1 mps 758 mmHg 95%
    06:00 -1°C° 0 mm 1 mps 758 mmHg 96%
    07:00 -1°C° 0 mm 1 mps 758 mmHg 96%
    08:00 -1°C° 0 mm 1 mps 758 mmHg 96%
    09:00 -1°C° 0 mm 1 mps 758 mmHg 94%
    10:00 0°C° 0 mm 1 mps 758 mmHg 92%
    11:00 +1°C° 0 mm 1 mps 757 mmHg 90%
    12:00 0°C° 0 mm 1 mps 757 mmHg 90%
    13:00 0°C° 0 mm 1 mps 757 mmHg 91%
    14:00 0°C° 0 mm 1 mps 756 mmHg 92%
    15:00 0°C° 0 mm 1 mps 756 mmHg 93%
    16:00 -1°C° 0 mm 1 mps 756 mmHg 93%
    17:00 -1°C° 0 mm 1 mps 755 mmHg 93%
    18:00 -1°C° 0 mm 1 mps 755 mmHg 93%
    19:00 -2°C° 0 mm 0 mps 755 mmHg 93%
    20:00 -3°C° 0 mm 0 mps 755 mmHg 92%
    21:00 -3°C° 0 mm 0 mps 755 mmHg 92%
    22:00 -3°C° 0 mm 0 mps 755 mmHg 92%
    23:00 -3°C° 0 mm 0 mps 755 mmHg 92%

    21 November, Wednesday

    Time Temperature Precipitation Wind Pressure Humidity
    00:00 -2°C° 0 mm 1 mps 755 mmHg 92%
    01:00 -2°C° 0 mm 1 mps 755 mmHg 92%
    02:00 -2°C° 0 mm 1 mps 755 mmHg 93%
    03:00 -2°C° 0 mm 1 mps 755 mmHg 93%
    04:00 -3°C° 0 mm 1 mps 755 mmHg 94%
    05:00 -3°C° 0 mm 1 mps 755 mmHg 94%
    06:00 -3°C° 0 mm 1 mps 755 mmHg 94%
    07:00 -3°C° 0 mm 1 mps 755 mmHg 94%
    08:00 -3°C° 0 mm 1 mps 755 mmHg 94%
    09:00 -2°C° 0 mm 1 mps 755 mmHg 91%
    10:00 -1°C° 0 mm 1 mps 755 mmHg 88%
    11:00 0°C° 0 mm 1 mps 756 mmHg 85%
    12:00 0°C° 0 mm 1 mps 756 mmHg 87%
    13:00 -3°C° 0 mm 2 mps 756 mmHg 88%
    14:00 -3°C° 0 mm 2 mps 756 mmHg 89%
    15:00 -3°C° 0 mm 2 mps 756 mmHg 91%
    16:00 -4°C° 0 mm 2 mps 756 mmHg 93%
    17:00 -4°C° 0 mm 2 mps 756 mmHg 95%
    18:00 -4°C° 0 mm 2 mps 756 mmHg 95%
    19:00 -4°C° 0 mm 2 mps 756 mmHg 95%
    20:00 -4°C° 0 mm 2 mps 756 mmHg 95%
    21:00 -3°C° 0 mm 2 mps 756 mmHg 93%
    22:00 -3°C° 0 mm 2 mps 757 mmHg 91%
    23:00 -3°C° 0 mm 2 mps 757 mmHg 90%
    Show more